Weather History for Cheboygan, MI

Change the Weather History Date:

Saturday, December 31, 2011

  Actual Average (KPLN) Record (KPLN)
Temperature  
Mean Temperature 30 °F -  
Max Temperature 34 °F 27 °F 57 °F (1965)
Min Temperature 26 °F 10 °F -19 °F (1962)
Degree Days  
Heating Degree Days 35    
Moisture  
Dew Point 28 °F    
Average Humidity 91    
Maximum Humidity 99    
Minimum Humidity 72    
Precipitation  
Precipitation 0.00 in - - ()
Sea Level Pressure  
Sea Level Pressure 29.87 in    
Wind  
Wind Speed 4 mph (SSW)    
Max Wind Speed 8 mph    
Max Gust Speed -    
Visibility 8 miles    
Events      
Averages and records for this station are not official NWS values.
T = Trace of Precipitation, MM = Missing Value Source: NWS Daily Summary

Daily Weather History Graph

Daily Weather History Graph

Search for Another Location

Airport:

Trip Planner

Search our weather history database for the weather conditions in past years. The results will help you decide how hot, cold, wet, or windy it might be!

Date:

Astronomy

Dec. 31, 2011 Rise Set
Actual Time 8:18 AM EST 5:03 PM EST
Civil Twilight 7:44 AM EST 5:37 PM EST
Nautical Twilight 7:06 AM EST 6:15 PM EST
Astronomical Twilight 6:30 AM EST 6:51 PM EST
Moon 11:40 AM EST (12/31) No Moon Set
Length of Visible Light 9h 53m
Length of Day
8h 44m
Waxing Crescent, 45% of the Moon is Illuminated
Dec 31
Waxing Crescent
Jan 1
First Quarter
Jan 9
Full
Jan 16
Last Quarter
Jan 23
New

Hourly Weather History & Observations

Time (EST) Temp. Windchill Dew Point Humidity Pressure Visibility Wind Dir Wind Speed Gust Speed Precip Events Conditions
12:34 AM 29.1 °F 23.0 °F 28.8 °F 99% 29.75 in 5.0 mi NE 5.8 mph - N/A   Overcast
12:54 AM 28.9 °F 21.9 °F 28.4 °F 98% 29.75 in 5.0 mi NE 6.9 mph - N/A   Overcast
1:14 AM 28.9 °F 22.8 °F 28.4 °F 98% 29.75 in 5.0 mi NE 5.8 mph - N/A   Overcast
1:34 AM 29.1 °F 23.0 °F 28.6 °F 98% 29.76 in 7.0 mi NNE 5.8 mph - N/A   Overcast
1:54 AM 29.1 °F 24.1 °F 28.4 °F 97% 29.77 in 7.0 mi NNE 4.6 mph - N/A   Overcast
2:34 AM 29.1 °F 24.1 °F 28.2 °F 96% 29.78 in 7.0 mi North 4.6 mph - N/A   Overcast
3:34 AM 29.1 °F 24.1 °F 28.0 °F 96% 29.81 in 10.0 mi NNW 4.6 mph - N/A   Overcast
3:54 AM 29.1 °F 23.0 °F 27.9 °F 95% 29.83 in 10.0 mi NNW 5.8 mph - N/A   Overcast
4:15 AM 28.9 °F 21.1 °F 27.5 °F 94% 29.83 in 10.0 mi NNW 8.1 mph - N/A   Overcast
4:34 AM 28.8 °F 22.6 °F 27.3 °F 94% 29.83 in 10.0 mi NNW 5.8 mph - N/A   Overcast
4:54 AM 28.6 °F 23.5 °F 27.1 °F 94% 29.83 in 10.0 mi NNW 4.6 mph - N/A   Overcast
5:14 AM 28.8 °F 23.7 °F 27.3 °F 94% 29.84 in 10.0 mi NW 4.6 mph - N/A   Overcast
5:34 AM 28.9 °F 25.2 °F 27.3 °F 94% 29.85 in 10.0 mi WNW 3.5 mph - N/A   Overcast
5:55 AM 29.7 °F - 27.3 °F 91% 29.85 in 10.0 mi Calm Calm - N/A   Overcast
6:14 AM 29.5 °F - 27.3 °F 92% 29.85 in 10.0 mi Calm Calm - N/A   Overcast
6:34 AM 29.1 °F 24.1 °F 27.1 °F 92% 29.86 in 10.0 mi West 4.6 mph - N/A   Overcast
7:14 AM 28.4 °F 23.3 °F 26.8 °F 94% 29.87 in 10.0 mi West 4.6 mph - N/A   Overcast
7:54 AM 28.2 °F 23.1 °F 27.0 °F 95% 29.89 in 7.0 mi West 4.6 mph - N/A   Overcast
8:14 AM 28.0 °F - 27.0 °F 96% 29.90 in 5.0 mi Calm Calm - N/A   Overcast
8:35 AM 27.3 °F 23.4 °F 26.6 °F 97% 29.90 in 4.0 mi SW 3.5 mph - N/A   Overcast
8:54 AM 27.1 °F 23.2 °F 26.6 °F 98% 29.91 in 4.0 mi WSW 3.5 mph - N/A   Overcast
9:14 AM 26.8 °F 22.8 °F 26.6 °F 99% 29.92 in 2.5 mi WSW 3.5 mph - N/A   Overcast
9:35 AM 27.0 °F 23.0 °F 26.6 °F 99% 29.92 in 0.8 mi SSW 3.5 mph - N/A   Overcast
10:15 AM 27.3 °F - 27.0 °F 99% 29.93 in 0.8 mi Calm Calm - N/A   Overcast
10:34 AM 27.5 °F - 27.3 °F 99% 29.93 in 0.8 mi Calm Calm - N/A   Overcast
10:54 AM 28.0 °F - 27.9 °F 99% 29.94 in 1.8 mi Calm Calm - N/A   Overcast
11:34 AM 28.4 °F 24.6 °F 28.0 °F 99% 29.93 in 4.0 mi South 3.5 mph - N/A   Overcast
12:14 PM 29.8 °F 23.9 °F 28.6 °F 95% 29.92 in 5.0 mi SW 5.8 mph - N/A   Overcast
12:34 PM 32.0 °F 25.6 °F 29.3 °F 90% 29.91 in 10.0 mi SW 6.9 mph - N/A   Scattered Clouds
12:54 PM 32.4 °F 26.0 °F 28.6 °F 86% 29.91 in 10.0 mi SW 6.9 mph - N/A   Clear
1:14 PM 33.1 °F 27.7 °F 27.7 °F 81% 29.90 in 10.0 mi SSW 5.8 mph - N/A   Clear
1:35 PM 33.1 °F 27.7 °F 27.5 °F 80% 29.89 in 10.0 mi SSW 5.8 mph - N/A   Clear
1:54 PM 33.4 °F 30.4 °F 27.0 °F 77% 29.89 in 10.0 mi SSW 3.5 mph - N/A   Clear
2:14 PM 34.2 °F 31.2 °F 26.1 °F 72% 29.89 in 10.0 mi South 3.5 mph - N/A   Clear
2:35 PM 34.5 °F 31.6 °F 26.4 °F 72% 29.90 in 10.0 mi South 3.5 mph - N/A   Clear
3:14 PM 34.7 °F - 26.6 °F 72% 29.91 in 10.0 mi Calm Calm - N/A   Clear
3:35 PM 34.2 °F - 26.6 °F 74% 29.91 in 10.0 mi Calm Calm - N/A   Clear
4:15 PM 33.4 °F - 27.1 °F 78% 29.93 in 10.0 mi Calm Calm - N/A   Clear
4:34 PM 32.0 °F - 28.4 °F 87% 29.93 in 10.0 mi Calm Calm - N/A   Clear
4:54 PM 32.0 °F - 28.2 °F 86% 29.93 in 10.0 mi Calm Calm - N/A   Clear
5:15 PM 30.2 °F - 28.4 °F 93% 29.93 in 10.0 mi Calm Calm - N/A   Clear
5:34 PM 30.2 °F - 28.4 °F 93% 29.92 in 10.0 mi Calm Calm - N/A   Clear
5:54 PM 30.6 °F - 28.0 °F 90% 29.93 in 10.0 mi Calm Calm - N/A   Clear
6:15 PM 29.1 °F - 27.9 °F 95% 29.92 in 10.0 mi Calm Calm - N/A   Clear
6:34 PM 30.0 °F - 27.9 °F 92% 29.91 in 10.0 mi Calm Calm - N/A   Clear
6:54 PM 31.5 °F 25.8 °F 27.3 °F 85% 29.91 in 10.0 mi ESE 5.8 mph - N/A   Clear
6:59 PM 30.4 °F 23.6 °F 27.1 °F 88% 29.91 in 10.0 mi ESE 6.9 mph - N/A   Clear
7:34 PM 31.5 °F 25.8 °F 28.2 °F 88% 29.90 in 10.0 mi SE 5.8 mph - N/A   Clear
7:55 PM 31.6 °F 28.3 °F 28.4 °F 88% 29.91 in 10.0 mi SSE 3.5 mph - N/A   Mostly Cloudy
8:14 PM 31.5 °F 25.8 °F 28.4 °F 88% 29.89 in 10.0 mi SE 5.8 mph - N/A   Overcast
8:34 PM 30.9 °F 26.2 °F 28.2 °F 90% 29.88 in 10.0 mi SE 4.6 mph - N/A   Scattered Clouds
8:55 PM 31.6 °F 26.0 °F 28.9 °F 90% 29.88 in 10.0 mi SSE 5.8 mph - N/A   Scattered Clouds
9:34 PM 32.0 °F 26.4 °F 29.1 °F 89% 29.88 in 10.0 mi SE 5.8 mph - N/A   Scattered Clouds
9:55 PM 32.0 °F 25.6 °F 29.3 °F 90% 29.86 in 10.0 mi ESE 6.9 mph - N/A   Mostly Cloudy
10:34 PM 32.0 °F 25.6 °F 29.7 °F 91% 29.85 in 10.0 mi SE 6.9 mph - N/A   Overcast
11:14 PM 32.4 °F 25.3 °F 30.0 °F 91% 29.82 in 10.0 mi SE 8.1 mph - N/A   Overcast
11:34 PM 32.5 °F 29.3 °F 30.0 °F 90% 29.82 in 10.0 mi South 3.5 mph - N/A   Overcast
11:55 PM 32.4 °F 29.1 °F 30.0 °F 91% 29.81 in 10.0 mi SE 3.5 mph - N/A   Overcast